Time,TemperatureF,DewpointF,PressureIn,WindDirection,WindDirectionDegrees,WindSpeedMPH,WindSpeedGustMPH,Humidity,HourlyPrecipIn,Conditions,Clouds,dailyrainin,SoftwareType,DateUTC
2013-09-25 00:01:00,48.2,43.9,29.94,SW,236,0.0,0.0,85,0.00,,CLR,0.00,VWS V14.01,2013-09-25 04:01:00,
2013-09-25 00:06:00,48.2,44.2,29.94,SW,236,0.0,0.0,86,0.00,,CLR,0.00,VWS V14.01,2013-09-25 04:06:00,
2013-09-25 00:11:00,48.0,44.0,29.94,SW,236,0.0,0.0,86,0.00,,CLR,0.00,VWS V14.01,2013-09-25 04:11:00,
2013-09-25 00:16:00,47.9,44.2,29.94,SW,236,0.0,0.0,87,0.00,,CLR,0.00,VWS V14.01,2013-09-25 04:16:00,
2013-09-25 00:21:00,47.7,44.0,29.94,SW,236,0.0,0.0,87,0.00,,CLR,0.00,VWS V14.01,2013-09-25 04:21:00,
2013-09-25 00:26:00,47.7,44.0,29.94,SW,236,0.0,0.0,87,0.00,,CLR,0.00,VWS V14.01,2013-09-25 04:26:00,
2013-09-25 00:31:00,47.7,44.0,29.94,SW,236,0.0,0.0,87,0.00,,CLR,0.00,VWS V14.01,2013-09-25 04:31:00,
2013-09-25 00:36:00,47.6,43.9,29.94,SW,236,0.0,0.0,87,0.00,,CLR,0.00,VWS V14.01,2013-09-25 04:36:00,
2013-09-25 00:41:00,47.6,44.2,29.94,SW,236,0.0,0.0,88,0.00,,CLR,0.00,VWS V14.01,2013-09-25 04:41:00,
2013-09-25 00:46:00,47.4,44.0,29.94,SW,236,0.0,0.0,88,0.00,,CLR,0.00,VWS V14.01,2013-09-25 04:46:00,
2013-09-25 00:51:00,47.3,43.9,29.94,SW,236,0.0,0.0,88,0.00,,CLR,0.00,VWS V14.01,2013-09-25 04:51:00,
2013-09-25 00:56:00,47.1,43.7,29.94,SW,236,0.0,0.0,88,0.00,,CLR,0.00,VWS V14.01,2013-09-25 04:56:00,
2013-09-25 01:01:00,47.0,43.6,29.94,SW,236,0.0,0.0,88,0.00,,CLR,0.00,VWS V14.01,2013-09-25 05:01:00,
2013-09-25 01:06:00,47.0,43.9,29.94,SW,236,0.0,0.0,89,0.00,,CLR,0.00,VWS V14.01,2013-09-25 05:06:00,
2013-09-25 01:11:00,47.0,43.9,29.94,SW,236,0.0,0.0,89,0.00,,CLR,0.00,VWS V14.01,2013-09-25 05:11:00,
2013-09-25 01:16:00,47.1,44.0,29.94,SW,236,0.0,0.0,89,0.00,,CLR,0.00,VWS V14.01,2013-09-25 05:16:00,
2013-09-25 01:21:00,47.3,44.2,29.94,SW,236,0.0,0.0,89,0.00,,CLR,0.00,VWS V14.01,2013-09-25 05:21:00,
2013-09-25 01:26:00,47.4,44.3,29.94,SW,236,0.0,0.0,89,0.00,,CLR,0.00,VWS V14.01,2013-09-25 05:26:00,
2013-09-25 01:31:00,47.4,44.3,29.94,SW,236,0.0,0.0,89,0.00,,CLR,0.00,VWS V14.01,2013-09-25 05:31:00,
2013-09-25 01:36:00,47.3,44.2,29.94,SW,236,0.0,0.0,89,0.00,,CLR,0.00,VWS V14.01,2013-09-25 05:36:00,
2013-09-25 01:41:00,47.4,44.3,29.94,SW,236,0.0,0.0,89,0.00,,CLR,0.00,VWS V14.01,2013-09-25 05:41:00,
2013-09-25 01:46:00,47.4,44.3,29.94,SW,236,0.0,0.0,89,0.00,,CLR,0.00,VWS V14.01,2013-09-25 05:46:00,
2013-09-25 01:51:00,47.4,44.3,29.94,SW,236,0.0,0.0,89,0.00,,CLR,0.00,VWS V14.01,2013-09-25 05:51:00,
2013-09-25 01:57:00,47.4,44.3,29.94,SW,236,0.0,0.0,89,0.00,,CLR,0.00,VWS V14.01,2013-09-25 05:57:00,
2013-09-25 02:02:00,47.4,44.3,29.94,SW,236,0.0,0.0,89,0.00,,CLR,0.00,VWS V14.01,2013-09-25 06:02:00,
2013-09-25 02:06:00,47.4,44.3,29.94,SW,236,0.0,0.0,89,0.00,,CLR,0.00,VWS V14.01,2013-09-25 06:06:00,
2013-09-25 02:12:00,47.3,44.2,29.94,SW,236,0.0,0.0,89,0.00,,CLR,0.00,VWS V14.01,2013-09-25 06:12:00,
2013-09-25 02:17:00,47.3,44.2,29.94,SW,236,0.0,0.0,89,0.00,,CLR,0.00,VWS V14.01,2013-09-25 06:17:00,
2013-09-25 02:22:00,47.1,44.0,29.94,SW,236,0.0,0.0,89,0.00,,CLR,0.00,VWS V14.01,2013-09-25 06:22:00,
2013-09-25 02:27:00,47.1,44.0,29.94,SW,236,0.0,0.0,89,0.00,,CLR,0.00,VWS V14.01,2013-09-25 06:27:00,
2013-09-25 02:32:00,47.1,44.0,29.94,SW,236,0.0,0.0,89,0.00,,CLR,0.00,VWS V14.01,2013-09-25 06:32:00,
2013-09-25 02:37:00,47.0,43.9,29.94,SW,236,0.0,0.0,89,0.00,,CLR,0.00,VWS V14.01,2013-09-25 06:37:00,
2013-09-25 02:42:00,46.8,43.7,29.94,SW,236,0.0,0.0,89,0.00,,CLR,0.00,VWS V14.01,2013-09-25 06:42:00,
2013-09-25 02:47:00,46.7,43.6,29.94,SW,236,0.0,0.0,89,0.00,,CLR,0.00,VWS V14.01,2013-09-25 06:47:00,
2013-09-25 02:52:00,46.5,43.7,29.94,SW,236,0.0,0.0,90,0.00,,CLR,0.00,VWS V14.01,2013-09-25 06:52:00,
2013-09-25 02:57:00,46.5,43.7,29.94,SW,236,0.0,0.0,90,0.00,,CLR,0.00,VWS V14.01,2013-09-25 06:57:00,
2013-09-25 03:02:00,46.4,43.6,29.93,SW,236,0.0,0.0,90,0.00,,CLR,0.00,VWS V14.01,2013-09-25 07:02:00,
2013-09-25 03:07:00,46.4,43.9,29.93,SW,236,0.0,0.0,91,0.00,,CLR,0.00,VWS V14.01,2013-09-25 07:07:00,
2013-09-25 03:12:00,46.2,43.7,29.93,SW,236,0.0,0.0,91,0.00,,CLR,0.00,VWS V14.01,2013-09-25 07:12:00,
2013-09-25 03:17:00,46.2,43.7,29.93,SW,236,0.0,0.0,91,0.00,,CLR,0.00,VWS V14.01,2013-09-25 07:17:00,
2013-09-25 03:22:00,46.2,43.7,29.93,SW,236,0.0,0.0,91,0.00,,CLR,0.00,VWS V14.01,2013-09-25 07:22:00,
2013-09-25 03:27:00,46.2,43.7,29.93,SW,236,0.0,0.0,91,0.00,,CLR,0.00,VWS V14.01,2013-09-25 07:27:00,
2013-09-25 03:32:00,46.2,43.4,29.93,SW,236,0.0,0.0,90,0.00,,CLR,0.00,VWS V14.01,2013-09-25 07:32:00,
2013-09-25 03:37:00,46.4,43.6,29.93,SW,236,0.0,0.0,90,0.00,,CLR,0.00,VWS V14.01,2013-09-25 07:37:00,
2013-09-25 03:42:00,46.2,43.4,29.93,SW,236,0.0,0.0,90,0.00,,CLR,0.00,VWS V14.01,2013-09-25 07:42:00,
2013-09-25 03:47:00,46.2,43.4,29.93,SW,236,0.0,0.0,90,0.00,,CLR,0.00,VWS V14.01,2013-09-25 07:47:00,
2013-09-25 03:52:00,46.1,43.3,29.93,SW,236,0.0,0.0,90,0.00,,CLR,0.00,VWS V14.01,2013-09-25 07:52:00,
2013-09-25 03:57:00,46.1,43.3,29.93,SW,236,0.0,0.0,90,0.00,,CLR,0.00,VWS V14.01,2013-09-25 07:57:00,
2013-09-25 04:02:00,46.1,43.3,29.93,SW,236,0.0,0.0,90,0.00,,CLR,0.00,VWS V14.01,2013-09-25 08:02:00,
2013-09-25 04:07:00,45.9,43.1,29.93,SW,236,0.0,0.0,90,0.00,,CLR,0.00,VWS V14.01,2013-09-25 08:07:00,
2013-09-25 04:12:00,45.8,43.0,29.93,SW,236,0.0,0.0,90,0.00,,CLR,0.00,VWS V14.01,2013-09-25 08:12:00,
2013-09-25 04:17:00,45.6,43.1,29.93,SW,236,0.0,0.0,91,0.00,,CLR,0.00,VWS V14.01,2013-09-25 08:17:00,
2013-09-25 04:22:00,45.6,43.1,29.93,SW,236,0.0,0.0,91,0.00,,CLR,0.00,VWS V14.01,2013-09-25 08:22:00,
2013-09-25 04:27:00,45.5,43.0,29.93,SW,236,0.0,0.0,91,0.00,,CLR,0.00,VWS V14.01,2013-09-25 08:27:00,
2013-09-25 04:32:00,45.5,43.0,29.93,SW,236,0.0,0.0,91,0.00,,CLR,0.00,VWS V14.01,2013-09-25 08:32:00,
2013-09-25 04:37:00,45.5,43.0,29.93,SW,236,0.0,0.0,91,0.00,,CLR,0.00,VWS V14.01,2013-09-25 08:37:00,
2013-09-25 04:42:00,45.4,42.9,29.93,SW,236,0.0,0.0,91,0.00,,CLR,0.00,VWS V14.01,2013-09-25 08:42:00,
2013-09-25 04:47:00,45.5,43.0,29.93,SW,236,0.0,0.0,91,0.00,,CLR,0.00,VWS V14.01,2013-09-25 08:47:00,
2013-09-25 04:52:00,45.5,42.7,29.92,SW,236,0.0,0.0,90,0.00,,CLR,0.00,VWS V14.01,2013-09-25 08:52:00,
2013-09-25 04:57:00,45.6,42.8,29.92,SW,236,0.0,0.0,90,0.00,,CLR,0.00,VWS V14.01,2013-09-25 08:57:00,
2013-09-25 05:02:00,45.6,42.8,29.92,SW,236,0.0,0.0,90,0.00,,CLR,0.00,VWS V14.01,2013-09-25 09:02:00,
2013-09-25 05:07:00,45.6,42.5,29.92,SW,236,0.0,0.0,89,0.00,,CLR,0.00,VWS V14.01,2013-09-25 09:07:00,
2013-09-25 05:12:00,45.6,42.5,29.92,SW,236,0.0,0.0,89,0.00,,CLR,0.00,VWS V14.01,2013-09-25 09:12:00,
2013-09-25 05:17:00,45.6,42.5,29.92,SW,236,0.0,0.0,89,0.00,,CLR,0.00,VWS V14.01,2013-09-25 09:17:00,
2013-09-25 05:22:00,45.8,42.8,29.92,SW,236,0.0,0.0,89,0.00,,CLR,0.00,VWS V14.01,2013-09-25 09:22:00,
2013-09-25 05:27:00,45.9,42.5,29.93,SW,236,0.0,0.0,88,0.00,,CLR,0.00,VWS V14.01,2013-09-25 09:27:00,
2013-09-25 05:32:00,45.8,42.5,29.92,SW,236,0.0,0.0,88,0.00,,CLR,0.00,VWS V14.01,2013-09-25 09:32:00,
2013-09-25 05:37:00,45.6,42.3,29.92,SW,236,0.0,0.0,88,0.00,,CLR,0.00,VWS V14.01,2013-09-25 09:37:00,
2013-09-25 05:42:00,45.5,42.5,29.93,SW,236,0.0,0.0,89,0.00,,CLR,0.00,VWS V14.01,2013-09-25 09:42:00,
2013-09-25 05:47:00,45.4,42.3,29.93,SW,236,0.0,0.0,89,0.00,,CLR,0.00,VWS V14.01,2013-09-25 09:47:00,
2013-09-25 05:52:00,45.4,42.3,29.93,SW,236,0.0,0.0,89,0.00,,CLR,0.00,VWS V14.01,2013-09-25 09:52:00,
2013-09-25 05:57:00,45.2,42.2,29.92,SW,236,0.0,0.0,89,0.00,,CLR,0.00,VWS V14.01,2013-09-25 09:57:00,
2013-09-25 06:02:00,45.1,42.3,29.92,SW,236,0.0,0.0,90,0.00,,CLR,0.00,VWS V14.01,2013-09-25 10:02:00,
2013-09-25 06:07:00,45.1,42.3,29.92,SW,236,0.0,0.0,90,0.00,,CLR,0.00,VWS V14.01,2013-09-25 10:07:00,
2013-09-25 06:12:00,45.1,42.3,29.92,SW,236,0.0,0.0,90,0.00,,CLR,0.00,VWS V14.01,2013-09-25 10:12:00,
2013-09-25 06:17:00,45.2,42.5,29.92,SW,236,0.0,0.0,90,0.00,,CLR,0.00,VWS V14.01,2013-09-25 10:17:00,
2013-09-25 06:22:00,45.4,42.6,29.92,SW,236,0.0,0.0,90,0.00,,CLR,0.00,VWS V14.01,2013-09-25 10:22:00,
2013-09-25 06:27:00,45.5,42.5,29.93,SW,236,0.0,0.0,89,0.00,,CLR,0.00,VWS V14.01,2013-09-25 10:27:00,
2013-09-25 06:32:00,45.5,42.5,29.92,SW,236,0.0,0.0,89,0.00,,CLR,0.00,VWS V14.01,2013-09-25 10:32:00,
2013-09-25 06:37:00,45.5,42.5,29.93,SW,236,0.0,0.0,89,0.00,,CLR,0.00,VWS V14.01,2013-09-25 10:37:00,
2013-09-25 06:42:00,45.4,42.3,29.93,SW,236,0.0,0.0,89,0.00,,CLR,0.00,VWS V14.01,2013-09-25 10:42:00,
2013-09-25 06:47:00,45.4,42.3,29.93,SW,236,0.0,0.0,89,0.00,,CLR,0.00,VWS V14.01,2013-09-25 10:47:00,
2013-09-25 06:53:00,45.2,42.2,29.93,SW,236,0.0,0.0,89,0.00,,CLR,0.00,VWS V14.01,2013-09-25 10:53:00,
2013-09-25 06:58:00,45.1,42.3,29.93,SW,236,0.0,0.0,90,0.00,,CLR,0.00,VWS V14.01,2013-09-25 10:58:00,
2013-09-25 07:03:00,45.2,42.5,29.93,SW,236,0.0,0.0,90,0.00,,FEW030,0.00,VWS V14.01,2013-09-25 11:03:00,
2013-09-25 07:08:00,45.4,42.6,29.93,SW,236,0.0,0.0,90,0.00,,FEW030,0.00,VWS V14.01,2013-09-25 11:08:00,
2013-09-25 07:13:00,45.5,42.7,29.93,SW,236,0.0,0.0,90,0.00,,FEW030,0.00,VWS V14.01,2013-09-25 11:13:00,
2013-09-25 07:18:00,45.5,42.5,29.93,SW,236,0.0,0.0,89,0.00,,FEW030,0.00,VWS V14.01,2013-09-25 11:18:00,
2013-09-25 07:23:00,45.5,42.5,29.93,SW,236,0.0,0.0,89,0.00,,FEW030,0.00,VWS V14.01,2013-09-25 11:23:00,
2013-09-25 07:28:00,45.6,42.8,29.93,SW,236,0.0,0.0,90,0.00,,FEW030,0.00,VWS V14.01,2013-09-25 11:28:00,
2013-09-25 07:33:00,45.6,42.8,29.93,SW,236,0.0,0.0,90,0.00,,FEW030,0.00,VWS V14.01,2013-09-25 11:33:00,
2013-09-25 07:38:00,45.8,43.0,29.93,SW,236,0.0,0.0,90,0.00,,FEW030,0.00,VWS V14.01,2013-09-25 11:38:00,
2013-09-25 07:43:00,46.1,43.3,29.93,SW,236,0.0,0.0,90,0.00,,FEW030,0.00,VWS V14.01,2013-09-25 11:43:00,
2013-09-25 07:48:00,46.4,43.3,29.93,SW,236,0.0,0.0,89,0.00,,FEW030,0.00,VWS V14.01,2013-09-25 11:48:00,
2013-09-25 07:53:00,46.8,43.7,29.93,SW,236,0.0,0.0,89,0.00,,FEW030,0.00,VWS V14.01,2013-09-25 11:53:00,
2013-09-25 07:58:00,47.4,44.0,29.93,SW,236,0.0,0.0,88,0.00,,FEW030,0.00,VWS V14.01,2013-09-25 11:58:00,
2013-09-25 08:03:00,48.2,44.2,29.93,SW,236,0.0,0.0,86,0.00,,CLR,0.00,VWS V14.01,2013-09-25 12:03:00,
2013-09-25 08:08:00,49.2,44.9,29.93,SW,236,0.0,0.0,85,0.00,,CLR,0.00,VWS V14.01,2013-09-25 12:08:00,
2013-09-25 08:13:00,50.4,45.4,29.93,SW,236,0.0,0.0,83,0.00,,CLR,0.00,VWS V14.01,2013-09-25 12:13:00,
2013-09-25 08:18:00,51.4,45.8,29.94,SW,236,0.0,0.0,81,0.00,,CLR,0.00,VWS V14.01,2013-09-25 12:18:00,
2013-09-25 08:23:00,52.2,45.6,29.94,SW,236,0.0,2.0,78,0.00,,CLR,0.00,VWS V14.01,2013-09-25 12:23:00,
2013-09-25 08:27:00,52.6,46.0,29.94,SW,236,0.0,4.0,78,0.00,,CLR,0.00,VWS V14.01,2013-09-25 12:27:00,
2013-09-25 08:32:00,53.0,46.0,29.94,SW,236,0.0,0.0,77,0.00,,CLR,0.00,VWS V14.01,2013-09-25 12:32:00,
2013-09-25 08:37:00,53.6,45.9,29.94,SW,236,0.0,0.0,75,0.00,,CLR,0.00,VWS V14.01,2013-09-25 12:37:00,
2013-09-25 08:42:00,54.2,46.1,29.94,SW,236,0.0,0.0,74,0.00,,CLR,0.00,VWS V14.01,2013-09-25 12:42:00,
2013-09-25 08:47:00,54.7,45.5,29.94,SW,236,0.0,0.0,71,0.00,,CLR,0.00,VWS V14.01,2013-09-25 12:47:00,
2013-09-25 08:52:00,54.8,45.2,29.94,SW,236,0.0,0.0,70,0.00,,CLR,0.00,VWS V14.01,2013-09-25 12:52:00,
2013-09-25 08:57:00,55.0,45.8,29.94,SW,236,0.0,0.0,71,0.00,,CLR,0.00,VWS V14.01,2013-09-25 12:57:00,
2013-09-25 09:02:00,55.4,46.5,29.95,SW,236,0.0,0.0,72,0.00,,CLR,0.00,VWS V14.01,2013-09-25 13:02:00,
2013-09-25 09:07:00,56.0,46.4,29.95,SW,236,0.0,0.0,70,0.00,,FEW250,0.00,VWS V14.01,2013-09-25 13:07:00,
2013-09-25 09:12:00,55.9,45.5,29.95,SW,236,0.0,0.0,68,0.00,,FEW250,0.00,VWS V14.01,2013-09-25 13:12:00,
2013-09-25 09:17:00,56.6,47.3,29.94,SW,236,0.0,0.0,71,0.00,,FEW250,0.00,VWS V14.01,2013-09-25 13:17:00,
2013-09-25 09:22:00,56.9,46.8,29.94,SW,236,0.0,0.0,69,0.00,,FEW250,0.00,VWS V14.01,2013-09-25 13:22:00,
2013-09-25 09:27:00,57.4,47.3,29.94,SW,236,0.0,0.0,69,0.00,,FEW250,0.00,VWS V14.01,2013-09-25 13:27:00,
2013-09-25 09:32:00,58.0,47.5,29.94,SW,236,0.0,0.0,68,0.00,,FEW250,0.00,VWS V14.01,2013-09-25 13:32:00,
2013-09-25 09:37:00,58.7,48.2,29.94,SW,235,0.0,0.0,68,0.00,,FEW250,0.00,VWS V14.01,2013-09-25 13:37:00,
2013-09-25 09:42:00,59.2,47.5,29.94,SW,236,0.0,1.0,65,0.00,,FEW250,0.00,VWS V14.01,2013-09-25 13:42:00,
2013-09-25 09:47:00,59.5,48.2,29.94,SW,235,0.0,0.0,66,0.00,,FEW250,0.00,VWS V14.01,2013-09-25 13:47:00,
2013-09-25 09:52:00,59.9,48.5,29.94,SW,236,0.0,0.0,66,0.00,,FEW250,0.00,VWS V14.01,2013-09-25 13:52:00,
2013-09-25 09:57:00,60.4,47.8,29.94,SW,236,0.0,1.0,63,0.00,,FEW250,0.00,VWS V14.01,2013-09-25 13:57:00,
2013-09-25 10:02:00,61.4,49.1,29.94,SW,236,0.0,5.0,64,0.00,,FEW250,0.00,VWS V14.01,2013-09-25 14:02:00,
2013-09-25 10:07:00,62.1,48.5,29.94,SW,236,0.0,2.0,61,0.00,,FEW250,0.00,VWS V14.01,2013-09-25 14:07:00,
2013-09-25 10:12:00,63.1,49.0,29.93,SW,235,0.0,6.0,60,0.00,,FEW250,0.00,VWS V14.01,2013-09-25 14:12:00,
2013-09-25 10:17:00,63.4,49.3,29.93,SW,235,1.0,1.0,60,0.00,,FEW250,0.00,VWS V14.01,2013-09-25 14:17:00,
2013-09-25 10:22:00,63.7,49.6,29.93,SW,236,0.0,3.0,60,0.00,,FEW250,0.00,VWS V14.01,2013-09-25 14:22:00,
2013-09-25 10:27:00,63.9,48.4,29.93,SW,235,0.0,0.0,57,0.00,,FEW250,0.00,VWS V14.01,2013-09-25 14:27:00,
2013-09-25 10:32:00,64.1,48.6,29.93,SW,236,0.0,13.0,57,0.00,,FEW250,0.00,VWS V14.01,2013-09-25 14:32:00,
2013-09-25 10:37:00,64.2,48.7,29.93,SW,235,0.0,0.0,57,0.00,,FEW250,0.00,VWS V14.01,2013-09-25 14:37:00,
2013-09-25 10:42:00,64.6,48.6,29.93,SW,235,0.0,0.0,56,0.00,,FEW250,0.00,VWS V14.01,2013-09-25 14:42:00,
2013-09-25 10:47:00,64.2,46.7,29.93,SW,235,0.0,1.0,53,0.00,,FEW250,0.00,VWS V14.01,2013-09-25 14:47:00,
2013-09-25 10:52:00,64.6,47.6,29.93,SW,236,0.0,0.0,54,0.00,,FEW250,0.00,VWS V14.01,2013-09-25 14:52:00,
2013-09-25 10:57:00,65.0,47.5,29.93,SW,235,1.0,11.0,53,0.00,,FEW250,0.00,VWS V14.01,2013-09-25 14:57:00,
2013-09-25 11:02:00,65.4,47.8,29.93,SW,236,0.0,0.0,53,0.00,,FEW250,0.00,VWS V14.01,2013-09-25 15:02:00,
2013-09-25 11:07:00,65.5,46.9,29.93,SW,236,0.0,0.0,51,0.00,,FEW250,0.00,VWS V14.01,2013-09-25 15:07:00,
2013-09-25 11:12:00,65.5,46.9,29.93,SW,236,0.0,0.0,51,0.00,,FEW250,0.00,VWS V14.01,2013-09-25 15:12:00,
2013-09-25 11:17:00,65.2,47.2,29.93,SW,236,0.0,0.0,52,0.00,,FEW250,0.00,VWS V14.01,2013-09-25 15:17:00,
2013-09-25 11:22:00,65.7,49.6,29.93,SW,236,0.0,3.0,56,0.00,,FEW250,0.00,VWS V14.01,2013-09-25 15:22:00,
2013-09-25 11:27:00,66.2,48.6,29.93,SW,235,0.0,0.0,53,0.00,,FEW250,0.00,VWS V14.01,2013-09-25 15:27:00,
2013-09-25 11:32:00,66.3,47.7,29.93,SW,236,0.0,0.0,51,0.00,,FEW250,0.00,VWS V14.01,2013-09-25 15:32:00,
2013-09-25 11:37:00,66.3,48.2,29.93,SW,236,0.0,0.0,52,0.00,,FEW250,0.00,VWS V14.01,2013-09-25 15:37:00,
2013-09-25 11:42:00,66.5,48.9,29.93,SW,236,0.0,0.0,53,0.00,,FEW250,0.00,VWS V14.01,2013-09-25 15:42:00,
2013-09-25 11:47:00,66.8,48.6,29.92,SW,236,0.0,0.0,52,0.00,,FEW250,0.00,VWS V14.01,2013-09-25 15:47:00,
2013-09-25 11:52:00,66.8,49.1,29.92,SW,236,0.0,0.0,53,0.00,,FEW250,0.00,VWS V14.01,2013-09-25 15:52:00,
2013-09-25 11:57:00,67.2,49.5,29.92,SW,236,0.0,3.0,53,0.00,,FEW250,0.00,VWS V14.01,2013-09-25 15:57:00,
2013-09-25 12:03:00,66.8,47.6,29.92,SW,236,0.0,0.0,50,0.00,,SCT250,0.00,VWS V14.01,2013-09-25 16:03:00,
2013-09-25 12:08:00,66.8,48.6,29.92,SW,236,0.0,1.0,52,0.00,,SCT250,0.00,VWS V14.01,2013-09-25 16:08:00,
2013-09-25 12:13:00,66.5,46.8,29.92,SW,236,0.0,2.0,49,0.00,,SCT250,0.00,VWS V14.01,2013-09-25 16:13:00,
2013-09-25 12:18:00,66.8,48.6,29.92,SW,236,0.0,1.0,52,0.00,,SCT250,0.00,VWS V14.01,2013-09-25 16:18:00,
2013-09-25 12:23:00,66.8,46.5,29.92,SW,236,0.0,10.0,48,0.00,,SCT250,0.00,VWS V14.01,2013-09-25 16:23:00,
2013-09-25 12:28:00,66.5,48.3,29.92,SW,236,15.0,15.0,52,0.00,,SCT250,0.00,VWS V14.01,2013-09-25 16:28:00,
2013-09-25 12:33:00,66.5,47.3,29.92,SW,236,0.0,0.0,50,0.00,,SCT250,0.00,VWS V14.01,2013-09-25 16:33:00,
2013-09-25 12:38:00,67.3,48.0,29.92,SW,236,0.0,0.0,50,0.00,,SCT250,0.00,VWS V14.01,2013-09-25 16:38:00,
2013-09-25 12:43:00,68.0,49.7,29.92,SW,236,0.0,0.0,52,0.00,,SCT250,0.00,VWS V14.01,2013-09-25 16:43:00,
2013-09-25 12:49:00,68.3,49.0,29.92,SW,236,0.0,1.0,50,0.00,,SCT250,0.00,VWS V14.01,2013-09-25 16:49:00,
2013-09-25 12:54:00,68.0,48.7,29.92,SW,236,0.0,2.0,50,0.00,,SCT250,0.00,VWS V14.01,2013-09-25 16:54:00,
2013-09-25 12:59:00,68.3,49.0,29.92,SW,236,0.0,0.0,50,0.00,,SCT250,0.00,VWS V14.01,2013-09-25 16:59:00,
2013-09-25 13:04:00,68.3,48.4,29.92,SW,236,0.0,0.0,49,0.00,,SCT250,0.00,VWS V14.01,2013-09-25 17:04:00,
2013-09-25 13:09:00,68.8,50.0,29.92,SW,236,0.0,0.0,51,0.00,,SCT250,0.00,VWS V14.01,2013-09-25 17:09:00,
2013-09-25 13:14:00,69.3,49.3,29.92,SW,236,0.0,0.0,49,0.00,,SCT250,0.00,VWS V14.01,2013-09-25 17:14:00,
2013-09-25 13:19:00,69.0,49.1,29.91,SW,236,0.0,0.0,49,0.00,,SCT250,0.00,VWS V14.01,2013-09-25 17:19:00,
2013-09-25 13:24:00,69.3,49.9,29.91,SW,236,0.0,0.0,50,0.00,,SCT250,0.00,VWS V14.01,2013-09-25 17:24:00,
2013-09-25 13:29:00,68.8,47.8,29.91,SW,236,0.0,0.0,47,0.00,,SCT250,0.00,VWS V14.01,2013-09-25 17:29:00,
2013-09-25 13:34:00,68.8,48.9,29.90,SW,236,0.0,1.0,49,0.00,,SCT250,0.00,VWS V14.01,2013-09-25 17:34:00,
2013-09-25 13:39:00,68.3,49.0,29.90,SW,236,0.0,2.0,50,0.00,,SCT250,0.00,VWS V14.01,2013-09-25 17:39:00,
2013-09-25 13:44:00,68.7,49.9,29.90,SW,236,0.0,1.0,51,0.00,,SCT250,0.00,VWS V14.01,2013-09-25 17:44:00,
2013-09-25 13:49:00,68.5,47.5,29.90,SW,236,0.0,3.0,47,0.00,,SCT250,0.00,VWS V14.01,2013-09-25 17:49:00,
2013-09-25 13:54:00,68.7,47.7,29.90,SW,236,0.0,10.0,47,0.00,,SCT250,0.00,VWS V14.01,2013-09-25 17:54:00,
2013-09-25 13:59:00,69.2,48.7,29.90,SW,236,0.0,0.0,48,0.00,,SCT250,0.00,VWS V14.01,2013-09-25 17:59:00,
2013-09-25 14:04:00,69.2,49.8,29.90,SW,236,0.0,1.0,50,0.00,,SCT250,0.00,VWS V14.01,2013-09-25 18:04:00,
2013-09-25 14:09:00,68.8,49.4,29.89,SW,236,0.0,0.0,50,0.00,,SCT250,0.00,VWS V14.01,2013-09-25 18:09:00,
2013-09-25 14:14:00,68.8,49.4,29.90,SW,236,1.0,1.0,50,0.00,,SCT250,0.00,VWS V14.01,2013-09-25 18:14:00,
2013-09-25 14:19:00,69.3,49.3,29.89,SW,236,0.0,1.0,49,0.00,,SCT250,0.00,VWS V14.01,2013-09-25 18:19:00,
2013-09-25 14:24:00,69.8,52.4,29.89,SW,236,0.0,0.0,54,0.00,,SCT250,0.00,VWS V14.01,2013-09-25 18:24:00,
2013-09-25 14:29:00,70.0,50.5,29.89,SW,236,0.0,1.0,50,0.00,,SCT250,0.00,VWS V14.01,2013-09-25 18:29:00,
2013-09-25 14:34:00,69.8,49.8,29.89,SW,236,0.0,2.0,49,0.00,,SCT250,0.00,VWS V14.01,2013-09-25 18:34:00,
2013-09-25 14:39:00,70.2,49.6,29.89,SW,236,0.0,2.0,48,0.00,,SCT250,0.00,VWS V14.01,2013-09-25 18:39:00,
2013-09-25 14:44:00,70.3,50.3,29.89,SW,236,0.0,0.0,49,0.00,,SCT250,0.00,VWS V14.01,2013-09-25 18:44:00,
2013-09-25 14:49:00,70.9,51.9,29.89,SW,236,0.0,0.0,51,0.00,,SCT250,0.00,VWS V14.01,2013-09-25 18:49:00,
2013-09-25 14:54:00,71.0,52.0,29.89,SW,236,0.0,0.0,51,0.00,,SCT250,0.00,VWS V14.01,2013-09-25 18:54:00,
2013-09-25 14:59:00,70.7,51.2,29.88,SW,236,0.0,0.0,50,0.00,,SCT250,0.00,VWS V14.01,2013-09-25 18:59:00,
2013-09-25 15:04:00,70.5,49.9,29.88,SW,236,0.0,2.0,48,0.00,,SCT250,0.00,VWS V14.01,2013-09-25 19:04:00,
2013-09-25 15:09:00,71.2,52.2,29.88,SW,236,0.0,0.0,51,0.00,,SCT250,0.00,VWS V14.01,2013-09-25 19:09:00,
2013-09-25 15:14:00,71.4,50.7,29.88,SW,236,0.0,0.0,48,0.00,,SCT250,0.00,VWS V14.01,2013-09-25 19:14:00,
2013-09-25 15:19:00,71.4,50.7,29.88,SW,236,0.0,0.0,48,0.00,,SCT250,0.00,VWS V14.01,2013-09-25 19:19:00,
2013-09-25 15:24:00,70.9,49.7,29.88,SW,236,2.0,12.0,47,0.00,,SCT250,0.00,VWS V14.01,2013-09-25 19:24:00,
2013-09-25 15:29:00,70.5,49.9,29.88,SW,236,0.0,0.0,48,0.00,,SCT250,0.00,VWS V14.01,2013-09-25 19:29:00,
2013-09-25 15:34:00,70.5,52.6,29.88,SW,236,0.0,0.0,53,0.00,,SCT250,0.00,VWS V14.01,2013-09-25 19:34:00,
2013-09-25 15:39:00,70.7,52.2,29.88,SW,236,0.0,7.0,52,0.00,,SCT250,0.00,VWS V14.01,2013-09-25 19:39:00,
2013-09-25 15:44:00,71.0,52.5,29.88,SW,236,0.0,1.0,52,0.00,,SCT250,0.00,VWS V14.01,2013-09-25 19:44:00,
2013-09-25 15:49:00,71.2,52.7,29.88,SW,236,0.0,0.0,52,0.00,,SCT250,0.00,VWS V14.01,2013-09-25 19:49:00,
2013-09-25 15:54:00,71.2,50.5,29.88,SW,236,0.0,0.0,48,0.00,,SCT250,0.00,VWS V14.01,2013-09-25 19:54:00,
2013-09-25 15:59:00,71.0,53.5,29.88,SW,236,0.0,0.0,54,0.00,,SCT250,0.00,VWS V14.01,2013-09-25 19:59:00,
2013-09-25 16:04:00,71.0,52.0,29.88,SW,236,0.0,0.0,51,0.00,,SCT250,0.00,VWS V14.01,2013-09-25 20:04:00,
2013-09-25 16:09:00,71.4,52.3,29.88,SW,236,0.0,0.0,51,0.00,,SCT250,0.00,VWS V14.01,2013-09-25 20:09:00,
2013-09-25 16:14:00,71.7,53.2,29.88,SW,236,0.0,0.0,52,0.00,,SCT250,0.00,VWS V14.01,2013-09-25 20:14:00,
2013-09-25 16:19:00,71.5,51.9,29.88,SW,236,0.0,0.0,50,0.00,,SCT250,0.00,VWS V14.01,2013-09-25 20:19:00,
2013-09-25 16:24:00,70.7,51.2,29.87,SW,236,0.0,1.0,50,0.00,,SCT250,0.00,VWS V14.01,2013-09-25 20:24:00,
2013-09-25 16:29:00,70.7,51.7,29.88,SW,236,0.0,0.0,51,0.00,,SCT250,0.00,VWS V14.01,2013-09-25 20:29:00,
2013-09-25 16:34:00,70.5,52.6,29.87,SW,236,0.0,0.0,53,0.00,,SCT250,0.00,VWS V14.01,2013-09-25 20:34:00,
2013-09-25 16:39:00,70.0,52.1,29.88,SW,236,0.0,0.0,53,0.00,,SCT250,0.00,VWS V14.01,2013-09-25 20:39:00,
2013-09-25 16:44:00,69.8,52.9,29.88,SW,236,0.0,0.0,55,0.00,,SCT250,0.00,VWS V14.01,2013-09-25 20:44:00,
2013-09-25 16:50:00,69.3,51.5,29.88,SW,236,0.0,0.0,53,0.00,,SCT250,0.00,VWS V14.01,2013-09-25 20:50:00,
2013-09-25 16:55:00,69.2,52.4,29.88,SW,236,0.0,0.0,55,0.00,,SCT250,0.00,VWS V14.01,2013-09-25 20:55:00,
2013-09-25 17:00:00,68.7,52.4,29.87,SW,236,0.0,0.0,56,0.00,,SCT250,0.00,VWS V14.01,2013-09-25 21:00:00,
2013-09-25 17:05:00,68.2,52.4,29.87,SW,236,0.0,0.0,57,0.00,,SCT250,0.00,VWS V14.01,2013-09-25 21:05:00,
2013-09-25 17:10:00,67.7,51.5,29.88,SW,236,0.0,0.0,56,0.00,,SCT250,0.00,VWS V14.01,2013-09-25 21:10:00,
2013-09-25 17:15:00,67.2,50.5,29.88,SW,236,0.0,2.0,55,0.00,,SCT250,0.00,VWS V14.01,2013-09-25 21:15:00,
2013-09-25 17:20:00,66.7,52.4,29.88,SW,236,0.0,0.0,60,0.00,,SCT250,0.00,VWS V14.01,2013-09-25 21:20:00,
2013-09-25 17:25:00,66.3,51.6,29.88,SW,236,0.0,0.0,59,0.00,,SCT250,0.00,VWS V14.01,2013-09-25 21:25:00,
2013-09-25 17:30:00,66.0,52.2,29.88,SW,236,0.0,0.0,61,0.00,,SCT250,0.00,VWS V14.01,2013-09-25 21:30:00,
2013-09-25 17:35:00,65.5,51.7,29.88,SW,236,0.0,0.0,61,0.00,,SCT250,0.00,VWS V14.01,2013-09-25 21:35:00,
2013-09-25 17:40:00,65.0,52.1,29.88,SW,236,0.0,0.0,63,0.00,,SCT250,0.00,VWS V14.01,2013-09-25 21:40:00,
2013-09-25 17:45:00,64.6,51.7,29.88,SW,236,0.0,0.0,63,0.00,,SCT250,0.00,VWS V14.01,2013-09-25 21:45:00,
2013-09-25 17:50:00,64.1,51.7,29.88,SW,236,0.0,0.0,64,0.00,,SCT250,0.00,VWS V14.01,2013-09-25 21:50:00,
2013-09-25 17:55:00,63.6,51.2,29.88,SW,236,0.0,0.0,64,0.00,,SCT250,0.00,VWS V14.01,2013-09-25 21:55:00,
2013-09-25 18:00:00,63.3,51.8,29.88,SW,236,0.0,0.0,66,0.00,,SCT250,0.00,VWS V14.01,2013-09-25 22:00:00,
2013-09-25 18:05:00,62.8,50.9,29.89,SW,236,0.0,0.0,65,0.00,,SCT250,0.00,VWS V14.01,2013-09-25 22:05:00,
2013-09-25 18:10:00,62.3,51.2,29.89,SW,236,0.0,0.0,67,0.00,,SCT250,0.00,VWS V14.01,2013-09-25 22:10:00,
2013-09-25 18:15:00,61.8,51.1,29.89,SW,236,0.0,0.0,68,0.00,,SCT250,0.00,VWS V14.01,2013-09-25 22:15:00,
2013-09-25 18:20:00,61.4,51.2,29.89,SW,236,0.0,0.0,69,0.00,,SCT250,0.00,VWS V14.01,2013-09-25 22:20:00,
2013-09-25 18:25:00,60.7,51.2,29.89,SW,236,0.0,0.0,71,0.00,,SCT250,0.00,VWS V14.01,2013-09-25 22:25:00,
2013-09-25 18:30:00,60.4,51.0,29.89,SW,236,0.0,0.0,71,0.00,,SCT250,0.00,VWS V14.01,2013-09-25 22:30:00,
2013-09-25 18:35:00,60.1,50.7,29.89,SW,236,0.0,0.0,71,0.00,,SCT250,0.00,VWS V14.01,2013-09-25 22:35:00,
2013-09-25 18:40:00,59.8,50.4,29.89,SW,236,0.0,0.0,71,0.00,,SCT250,0.00,VWS V14.01,2013-09-25 22:40:00,
2013-09-25 18:45:00,59.6,50.6,29.89,SW,236,0.0,0.0,72,0.00,,SCT250,0.00,VWS V14.01,2013-09-25 22:45:00,
2013-09-25 18:50:00,59.3,50.7,29.89,SW,236,0.0,0.0,73,0.00,,SCT250,0.00,VWS V14.01,2013-09-25 22:50:00,
2013-09-25 18:55:00,58.9,50.6,29.89,SW,236,0.0,0.0,74,0.00,,SCT250,0.00,VWS V14.01,2013-09-25 22:55:00,
2013-09-25 19:00:00,58.6,50.7,29.90,SW,236,0.0,0.0,75,0.00,,SCT250,0.00,VWS V14.01,2013-09-25 23:00:00,
2013-09-25 19:05:00,58.3,50.8,29.90,SW,236,0.0,0.0,76,0.00,,SCT250,0.00,VWS V14.01,2013-09-25 23:05:00,
2013-09-25 19:10:00,58.0,50.8,29.90,SW,236,0.0,0.0,77,0.00,,SCT250,0.00,VWS V14.01,2013-09-25 23:10:00,
2013-09-25 19:15:00,57.5,50.4,29.90,SW,236,0.0,0.0,77,0.00,,SCT250,0.00,VWS V14.01,2013-09-25 23:15:00,
2013-09-25 19:20:00,57.4,50.3,29.90,SW,236,0.0,0.0,77,0.00,,SCT250,0.00,VWS V14.01,2013-09-25 23:20:00,
2013-09-25 19:25:00,57.2,50.4,29.90,SW,236,0.0,0.0,78,0.00,,SCT250,0.00,VWS V14.01,2013-09-25 23:25:00,
2013-09-25 19:30:00,57.0,50.6,29.90,SW,236,0.0,0.0,79,0.00,,SCT250,0.00,VWS V14.01,2013-09-25 23:30:00,
2013-09-25 19:35:00,56.9,50.5,29.90,SW,236,0.0,0.0,79,0.00,,SCT250,0.00,VWS V14.01,2013-09-25 23:35:00,
2013-09-25 19:40:00,56.6,50.5,29.90,SW,236,0.0,0.0,80,0.00,,SCT250,0.00,VWS V14.01,2013-09-25 23:40:00,
2013-09-25 19:45:00,56.4,50.7,29.90,SW,236,0.0,0.0,81,0.00,,SCT250,0.00,VWS V14.01,2013-09-25 23:45:00,
2013-09-25 19:50:00,56.3,50.5,29.91,SW,236,0.0,0.0,81,0.00,,SCT250,0.00,VWS V14.01,2013-09-25 23:50:00,
2013-09-25 19:55:00,56.1,50.4,29.91,SW,236,0.0,0.0,81,0.00,,SCT250,0.00,VWS V14.01,2013-09-25 23:55:00,
2013-09-25 20:01:00,56.0,50.3,29.91,SW,236,0.0,0.0,81,0.00,,SCT250,0.00,VWS V14.01,2013-09-26 00:01:00,
2013-09-25 20:06:00,55.9,50.5,29.91,SW,236,0.0,0.0,82,0.00,,BKN250,0.00,VWS V14.01,2013-09-26 00:06:00,
2013-09-25 20:11:00,55.7,50.3,29.91,SW,236,0.0,0.0,82,0.00,,BKN250,0.00,VWS V14.01,2013-09-26 00:11:00,
2013-09-25 20:16:00,55.6,50.2,29.91,SW,236,0.0,0.0,82,0.00,,BKN250,0.00,VWS V14.01,2013-09-26 00:16:00,
2013-09-25 20:21:00,55.3,49.9,29.91,SW,236,0.0,0.0,82,0.00,,BKN250,0.00,VWS V14.01,2013-09-26 00:21:00,
2013-09-25 20:26:00,55.3,49.9,29.91,SW,236,0.0,0.0,82,0.00,,BKN250,0.00,VWS V14.01,2013-09-26 00:26:00,
2013-09-25 20:31:00,55.3,49.9,29.91,SW,236,0.0,0.0,82,0.00,,BKN250,0.00,VWS V14.01,2013-09-26 00:31:00,
2013-09-25 20:36:00,55.0,49.9,29.91,SW,236,0.0,0.0,83,0.00,,BKN250,0.00,VWS V14.01,2013-09-26 00:36:00,
2013-09-25 20:41:00,54.7,50.0,29.91,SW,236,0.0,0.0,84,0.00,,BKN250,0.00,VWS V14.01,2013-09-26 00:41:00,
2013-09-25 20:46:00,54.4,49.7,29.91,SW,236,0.0,0.0,84,0.00,,BKN250,0.00,VWS V14.01,2013-09-26 00:46:00,
2013-09-25 20:51:00,54.1,49.7,29.92,SW,236,0.0,0.0,85,0.00,,BKN250,0.00,VWS V14.01,2013-09-26 00:51:00,
2013-09-25 20:56:00,53.9,49.8,29.92,SW,236,0.0,0.0,86,0.00,,BKN250,0.00,VWS V14.01,2013-09-26 00:56:00,
2013-09-25 21:01:00,53.8,49.7,29.92,SW,236,0.0,0.0,86,0.00,,BKN250,0.00,VWS V14.01,2013-09-26 01:01:00,
2013-09-25 21:06:00,53.6,49.5,29.92,SW,236,0.0,0.0,86,0.00,,BKN060,0.00,VWS V14.01,2013-09-26 01:06:00,
2013-09-25 21:11:00,53.8,50.0,29.92,SW,236,0.0,0.0,87,0.00,,BKN060,0.00,VWS V14.01,2013-09-26 01:11:00,
2013-09-25 21:16:00,53.9,50.1,29.92,SW,236,0.0,0.0,87,0.00,,BKN060,0.00,VWS V14.01,2013-09-26 01:16:00,
2013-09-25 21:21:00,53.9,50.1,29.92,SW,236,0.0,0.0,87,0.00,,BKN060,0.00,VWS V14.01,2013-09-26 01:21:00,
2013-09-25 21:26:00,54.2,50.1,29.92,SW,236,0.0,0.0,86,0.00,,BKN060,0.00,VWS V14.01,2013-09-26 01:26:00,
2013-09-25 21:31:00,54.2,50.1,29.92,SW,236,0.0,0.0,86,0.00,,BKN060,0.00,VWS V14.01,2013-09-26 01:31:00,
2013-09-25 21:36:00,54.2,50.1,29.92,SW,236,0.0,0.0,86,0.00,,BKN060,0.00,VWS V14.01,2013-09-26 01:36:00,
2013-09-25 21:41:00,54.1,50.3,29.93,SW,236,0.0,0.0,87,0.00,,BKN060,0.00,VWS V14.01,2013-09-26 01:41:00,
2013-09-25 21:46:00,53.8,50.0,29.93,SW,236,0.0,0.0,87,0.00,,BKN060,0.00,VWS V14.01,2013-09-26 01:46:00,
2013-09-25 21:51:00,53.6,49.8,29.93,SW,236,0.0,0.0,87,0.00,,BKN060,0.00,VWS V14.01,2013-09-26 01:51:00,
2013-09-25 21:56:00,53.3,49.8,29.93,SW,236,0.0,0.0,88,0.00,,BKN060,0.00,VWS V14.01,2013-09-26 01:56:00,
2013-09-25 22:01:00,53.2,50.0,29.94,SW,236,0.0,0.0,89,0.00,,BKN060,0.00,VWS V14.01,2013-09-26 02:01:00,
2013-09-25 22:06:00,53.0,49.8,29.94,SW,236,0.0,0.0,89,0.00,,BKN060,0.00,VWS V14.01,2013-09-26 02:06:00,
2013-09-25 22:12:00,53.0,49.8,29.94,SW,236,0.0,0.0,89,0.00,,BKN060,0.00,VWS V14.01,2013-09-26 02:12:00,
2013-09-25 22:17:00,52.9,49.8,29.94,SW,236,0.0,0.0,89,0.00,,BKN060,0.00,VWS V14.01,2013-09-26 02:17:00,
2013-09-25 22:22:00,52.7,49.8,29.94,SW,236,0.0,0.0,90,0.00,,BKN060,0.00,VWS V14.01,2013-09-26 02:22:00,
2013-09-25 22:27:00,52.7,49.8,29.94,SW,236,0.0,0.0,90,0.00,,BKN060,0.00,VWS V14.01,2013-09-26 02:27:00,
2013-09-25 22:32:00,53.0,50.2,29.94,SW,236,0.0,0.0,90,0.00,,BKN060,0.00,VWS V14.01,2013-09-26 02:32:00,
2013-09-25 22:37:00,53.2,50.3,29.94,SW,236,0.0,0.0,90,0.00,,BKN060,0.00,VWS V14.01,2013-09-26 02:37:00,
2013-09-25 22:42:00,53.3,50.5,29.94,SW,236,0.0,0.0,90,0.00,,BKN060,0.00,VWS V14.01,2013-09-26 02:42:00,
2013-09-25 22:47:00,53.5,50.6,29.95,SW,236,2.0,11.0,90,0.00,,BKN060,0.00,VWS V14.01,2013-09-26 02:47:00,
2013-09-25 22:52:00,53.3,50.5,29.94,SW,236,0.0,0.0,90,0.00,,BKN060,0.00,VWS V14.01,2013-09-26 02:52:00,
2013-09-25 22:57:00,53.5,50.6,29.94,SW,236,0.0,0.0,90,0.00,,BKN060,0.00,VWS V14.01,2013-09-26 02:57:00,
2013-09-25 23:02:00,53.5,50.6,29.94,SW,236,0.0,0.0,90,0.00,,BKN060,0.00,VWS V14.01,2013-09-26 03:02:00,
2013-09-25 23:07:00,53.6,51.0,29.95,SW,236,0.0,0.0,91,0.00,,OVC060,0.00,VWS V14.01,2013-09-26 03:07:00,
2013-09-25 23:12:00,53.8,50.9,29.95,SW,236,0.0,0.0,90,0.00,,OVC060,0.00,VWS V14.01,2013-09-26 03:12:00,
2013-09-25 23:17:00,53.9,51.0,29.95,SW,236,0.0,0.0,90,0.00,,OVC060,0.00,VWS V14.01,2013-09-26 03:17:00,
2013-09-25 23:22:00,54.1,51.2,29.95,SW,236,0.0,0.0,90,0.00,,OVC060,0.00,VWS V14.01,2013-09-26 03:22:00,
2013-09-25 23:27:00,54.2,51.3,29.95,SW,236,0.0,0.0,90,0.00,,OVC060,0.00,VWS V14.01,2013-09-26 03:27:00,
2013-09-25 23:32:00,54.5,51.6,29.95,SW,236,1.0,7.0,90,0.00,,OVC060,0.00,VWS V14.01,2013-09-26 03:32:00,
2013-09-25 23:37:00,54.8,51.9,29.96,SW,236,0.0,0.0,90,0.00,,OVC060,0.00,VWS V14.01,2013-09-26 03:37:00,
2013-09-25 23:42:00,55.1,51.9,29.96,SW,236,0.0,7.0,89,0.00,,OVC060,0.00,VWS V14.01,2013-09-26 03:42:00,
2013-09-25 23:47:00,55.3,51.8,29.96,SW,236,0.0,0.0,88,0.00,,OVC060,0.00,VWS V14.01,2013-09-26 03:47:00,
2013-09-25 23:52:00,55.3,51.8,29.96,SW,236,0.0,0.0,88,0.00,,OVC060,0.00,VWS V14.01,2013-09-26 03:52:00,
2013-09-25 23:57:00,55.4,51.9,29.96,SW,236,0.0,0.0,88,0.00,,OVC060,0.00,VWS V14.01,2013-09-26 03:57:00,